H1 CPF 2 NER 2022 10 20 9 293 01 glonass127 H2 1106403 9127 37869 2022 10 20 0 0 0 2022 10 23 23 45 0 900 1 1 0 0 0 1 H9 10 0 59872 0.00000 0 -6301843.087 -20932578.133 13165700.743 10 0 59872 900.00000 0 -6481747.736 -22374754.932 10404052.522 10 0 59872 1800.00000 0 -6728990.330 -23450126.021 7440407.225 10 0 59872 2700.00000 0 -6990059.741 -24136703.675 4332188.206 10 0 59872 3600.00000 0 -7209196.910 -24425552.801 1139725.951 10 0 59872 4500.00000 0 -7330978.256 -24321079.304 -2074911.651 10 0 59872 5400.00000 0 -7302899.572 -23840775.206 -5249130.979 10 0 59872 6300.00000 0 -7077849.476 -23014429.189 -8321042.153 10 0 59872 7200.00000 0 -6616365.450 -21882834.252 -11230681.002 10 0 59872 8100.00000 0 -5888574.101 -20496045.942 -13921198.102 10 0 59872 9000.00000 0 -4875730.339 -18911264.299 -16339989.714 10 0 59872 9900.00000 0 -3571287.236 -17190429.258 -18439746.434 10 0 59872 10800.00000 0 -1981448.349 -15397631.879 -20179397.136 10 0 59872 11700.00000 0 -125176.672 -13596451.927 -21524928.044 10 0 59872 12600.00000 0 1966342.045 -11847335.618 -22450059.539 10 0 59872 13500.00000 0 4250760.232 -10205125.465 -22936766.531 10 0 59872 14400.00000 0 6676109.668 -8716847.423 -22975631.819 10 0 59872 15300.00000 0 9182757.961 -7419849.179 -22566025.455 10 0 59872 16200.00000 0 11705697.769 -6340367.908 -21716107.113 10 0 59872 17100.00000 0 14177071.952 -5492587.017 -20442652.152 10 0 59872 18000.00000 0 16528827.851 -4878220.146 -18770705.925 10 0 59872 18900.00000 0 18695388.805 -4486637.770 -16733074.419 10 0 59872 19800.00000 0 20616230.595 -4295528.456 -14369662.639 10 0 59872 20700.00000 0 22238254.876 -4272063.950 -11726675.302 10 0 59872 21600.00000 0 23517860.860 -4374515.951 -8855696.982 10 0 59872 22500.00000 0 24422629.722 -4554253.458 -5812671.124 10 0 59872 23400.00000 0 24932552.899 -4758033.883 -2656799.219 10 0 59872 24300.00000 0 25040755.146 -4930489.234 550617.390 10 0 59872 25200.00000 0 24753684.608 -5016701.059 3747369.864 10 0 59872 26100.00000 0 24090764.604 -4964754.899 6871544.811 10 0 59872 27000.00000 0 23083524.246 -4728166.535 9862714.707 10 0 59872 27900.00000 0 21774246.386 -4268078.401 12663093.401 10 0 59872 28800.00000 0 20214191.030 -3555134.746 15218635.389 10 0 59872 29700.00000 0 18461469.269 -2570957.892 17480059.226 10 0 59872 30600.00000 0 16578656.489 -1309164.728 19403777.207 10 0 59872 31500.00000 0 14630243.649 224118.345 20952715.362 10 0 59872 32400.00000 0 12680031.321 2010263.321 22097010.105 10 0 59872 33300.00000 0 10788572.941 4018671.523 22814569.967 10 0 59872 34200.00000 0 9010771.369 6207806.547 23091493.161 10 0 59872 35100.00000 0 7393726.340 8526688.235 22922333.931 10 0 59872 36000.00000 0 5974920.176 10916788.080 22310213.022 10 0 59872 36900.00000 0 4780815.613 13314250.234 21266769.782 10 0 59872 37800.00000 0 3825923.052 15652348.938 19811955.911 10 0 59872 38700.00000 0 3112375.752 17864083.278 17973673.190 10 0 59872 39600.00000 0 2630031.095 19884803.795 15787260.157 10 0 59872 40500.00000 0 2357094.641 21654763.564 13294835.256 10 0 59872 41400.00000 0 2261242.141 23121488.427 10544506.676 10 0 59872 42300.00000 0 2301194.027 24241867.486 7589461.947 10 0 59872 43200.00000 0 2428677.486 24983875.724 4486952.915 10 0 59872 44100.00000 0 2590694.508 25327855.022 1297194.359 10 0 59872 45000.00000 0 2732000.628 25267297.718 -1917803.069 10 0 59872 45900.00000 0 2797689.252 24809097.413 -5095443.028 10 0 59872 46800.00000 0 2735771.121 23973254.090 -8173772.640 10 0 59872 47700.00000 0 2499637.837 22792043.853 -11092705.418 10 0 59872 48600.00000 0 2050302.595 21308686.687 -13795212.491 10 0 59872 49500.00000 0 1358320.304 19575567.424 -16228456.973 10 0 59872 50400.00000 0 405302.739 17652084.704 -18344847.186 10 0 59872 51300.00000 0 -815038.389 15602218.997 -20102986.245 10 0 59872 52200.00000 0 -2296367.240 13491923.064 -21468497.709 10 0 59872 53100.00000 0 -4019742.751 11386446.095 -22414709.709 10 0 59872 54000.00000 0 -5954181.433 9347705.453 -22923183.284 10 0 59872 54900.00000 0 -8057741.158 7431817.769 -22984074.093 10 0 59872 55800.00000 0 -10279080.518 5686894.034 -22596320.394 10 0 59872 56700.00000 0 -12559427.825 4151191.537 -21767654.058 10 0 59872 57600.00000 0 -14834876.339 2851699.810 -20514435.173 10 0 59872 58500.00000 0 -17038908.358 1803218.793 -18861314.577 10 0 59872 59400.00000 0 -19105041.323 1007965.983 -16840732.273 10 0 59872 60300.00000 0 -20969484.221 455726.488 -14492262.950 10 0 59872 61200.00000 0 -22573692.419 124536.689 -11861823.061 10 0 59872 62100.00000 0 -23866713.919 -18130.551 -9000756.441 10 0 59872 63000.00000 0 -24807229.335 -13732.330 -5964817.812 10 0 59872 63900.00000 0 -25365201.250 89354.376 -2813075.364 10 0 59872 64800.00000 0 -25523065.581 238131.954 393245.163 10 0 59872 65700.00000 0 -25276417.164 377471.677 3591951.697 10 0 59872 66600.00000 0 -24634163.171 452687.272 6721088.796 10 0 59872 67500.00000 0 -23618140.309 412083.566 9720129.206 10 0 59872 68400.00000 0 -22262213.909 209373.030 12531131.552 10 0 59872 69300.00000 0 -20610898.242 -194140.745 15099842.828 10 0 59872 70200.00000 0 -18717556.706 -827703.338 17376725.931 10 0 59872 71100.00000 0 -16642257.189 -1709650.450 19317894.303 10 0 59872 72000.00000 0 -14449371.479 -2846409.637 20885937.633 10 0 59872 72900.00000 0 -12205017.329 -4232003.957 22050624.833 10 0 59872 73800.00000 0 -9974447.589 -5848078.292 22789472.645 10 0 59872 74700.00000 0 -7819492.623 -7664447.885 23088170.459 10 0 59872 75600.00000 0 -5796159.666 -9640147.699 22940854.259 10 0 59872 76500.00000 0 -3952486.392 -11724941.097 22350224.823 10 0 59872 77400.00000 0 -2326735.778 -13861227.668 21327507.647 10 0 59872 78300.00000 0 -946005.775 -15986273.841 19892254.437 10 0 59872 79200.00000 0 174689.299 -18034676.495 18071988.390 10 0 59872 80100.00000 0 1032827.444 -19940959.646 15901698.108 10 0 59872 81000.00000 0 1638260.212 -21642198.202 13423187.543 10 0 59872 81900.00000 0 2012570.454 -23080560.720 10684292.064 10 0 59872 82800.00000 0 2187932.128 -24205665.376 7737973.563 10 0 59872 83700.00000 0 2205518.693 -24976650.117 4641310.130 10 0 59872 84600.00000 0 2113525.941 -25363868.919 1454398.406 10 0 59872 85500.00000 0 1964891.883 -25350140.912 -1760810.792 10 0 59873 0.00000 0 1814809.986 -24931497.442 -4941720.839 10 0 59873 900.00000 0 1718141.495 -24117392.690 -8026319.280 10 0 59873 1800.00000 0 1726838.025 -22930367.092 -10954399.938 10 0 59873 2700.00000 0 1887485.406 -21405174.849 -13668757.454 10 0 59873 3600.00000 0 2239075.642 -19587411.181 -16116324.724 10 0 59873 4500.00000 0 2811104.165 -17531696.173 -18249230.613 10 0 59873 5400.00000 0 3622075.817 -15299491.563 -20025755.080 10 0 59873 6300.00000 0 4678485.566 -12956642.810 -21411161.299 10 0 59873 7200.00000 0 5974319.213 -10570750.837 -22378387.054 10 0 59873 8100.00000 0 7491096.954 -8208485.108 -22908580.952 10 0 59873 9000.00000 0 9198459.003 -5932952.035 -22991472.491 10 0 59873 9900.00000 0 11055268.944 -3801230.227 -22625568.631 10 0 59873 10800.00000 0 13011188.166 -1862176.417 -21818173.489 10 0 59873 11700.00000 0 15008654.447 -154593.940 -20585231.506 10 0 59873 12600.00000 0 16985180.446 1294160.236 -18950998.228 10 0 59873 13500.00000 0 18875874.374 2469073.186 -16947546.486 10 0 59873 14400.00000 0 20616075.910 3367843.063 -14614119.072 10 0 59873 15300.00000 0 22143995.804 4000702.981 -11996342.172 10 0 59873 16200.00000 0 23403247.933 4389712.446 -9145316.492 10 0 59873 17100.00000 0 24345167.648 4567549.640 -6116605.270 10 0 59873 18000.00000 0 24930819.745 4575858.676 -2969140.334 10 0 59873 18900.00000 0 25132613.040 4463224.502 235931.442 10 0 59873 19800.00000 0 24935455.496 4282863.255 3436438.116 10 0 59873 20700.00000 0 24337403.472 4090127.135 6570385.534 10 0 59873 21600.00000 0 23349779.979 3939929.975 9577149.902 10 0 59873 22500.00000 0 21996759.002 3884202.159 12398637.608 10 0 59873 23400.00000 0 20314434.897 3969481.556 14980390.833 10 0 59873 24300.00000 0 18349416.878 4234740.826 17272619.198 10 0 59873 25200.00000 0 16157007.594 4709541.133 19231139.345 10 0 59873 26100.00000 0 13799041.373 5412588.396 20818206.346 10 0 59873 27000.00000 0 11341470.934 6350751.582 22003223.016 10 0 59873 27900.00000 0 8851801.016 7518583.558 22763315.374 10 0 59873 28800.00000 0 6396473.231 8898364.608 23083764.736 10 0 59873 29700.00000 0 4038308.025 10460667.679 22958289.205 10 0 59873 30600.00000 0 1834107.140 12165423.427 22389169.613 10 0 59873 31500.00000 0 -167486.232 13963442.891 21387217.235 10 0 59873 32400.00000 0 -1927782.856 15798337.085 19971583.027 10 0 59873 33300.00000 0 -3419425.129 17608756.454 18169410.482 10 0 59873 34200.00000 0 -4627290.273 19330859.542 16015336.809 10 0 59873 35100.00000 0 -5548881.374 20900910.328 13550849.715 10 0 59873 36000.00000 0 -6194189.224 22257897.430 10823509.739 10 0 59873 36900.00000 0 -6585029.598 23346066.470 7886050.915 10 0 59873 37800.00000 0 -6753882.435 24117259.500 4795375.167 10 0 59873 38700.00000 0 -6742280.475 24532962.304 1611458.433 10 0 59873 39600.00000 0 -6598814.229 24565971.771 -1603811.002 10 0 59873 40500.00000 0 -6376837.057 24201610.755 -4787839.577 10 0 59873 41400.00000 0 -6131967.598 23438436.496 -7878556.919 10 0 59873 42300.00000 0 -5919496.139 22288409.913 -10815640.520 10 0 59873 43200.00000 0 -5791806.448 20776516.014 -13541711.226 10 0 59873 44100.00000 0 -5795924.468 18939849.279 -16003474.255 10 0 59873 45000.00000 0 -5971300.312 16826201.050 -18152781.372 10 0 59873 45900.00000 0 -6347920.217 14492207.632 -19947591.532 10 0 59873 46800.00000 0 -6944831.029 12001136.894 -21352809.447 10 0 59873 47700.00000 0 -7769141.907 9420407.004 -22340984.225 10 0 59873 48600.00000 0 -8815547.252 6818942.386 -22892853.440 10 0 59873 49500.00000 0 -10066392.194 4264478.911 -22997721.485 10 0 59873 50400.00000 0 -11492278.360 1820932.438 -22653664.707 10 0 59873 51300.00000 0 -13053184.244 -454058.389 -21867559.724 10 0 59873 52200.00000 0 -14700052.331 -2511311.974 -20654935.099 10 0 59873 53100.00000 0 -16376775.011 -4311915.340 -19039650.366 10 0 59873 54000.00000 0 -18022494.415 -5828592.849 -17053409.993 10 0 59873 54900.00000 0 -19574118.069 -7046576.688 -14735123.247 10 0 59873 55800.00000 0 -20968943.342 -7963945.190 -12130124.062 10 0 59873 56700.00000 0 -22147279.482 -8591418.016 -9289267.728 10 0 59873 57600.00000 0 -23054956.598 -8951620.234 -6267923.496 10 0 59873 58500.00000 0 -23645616.272 -9077849.732 -3124884.155 10 0 59873 59400.00000 0 -23882688.238 -9012403.152 78785.093 10 0 59873 60300.00000 0 -23740971.335 -8804533.723 3280935.335 10 0 59873 61200.00000 0 -23207753.960 -8508129.195 6419536.680 10 0 59873 62100.00000 0 -22283428.854 -8179209.198 9433871.807 10 0 59873 63000.00000 0 -20981578.265 -7873348.063 12265697.849 10 0 59873 63900.00000 0 -19328527.550 -7643131.440 14860355.074 10 0 59873 64800.00000 0 -17362387.013 -7535752.949 17167802.541 10 0 59873 65700.00000 0 -15131622.502 -7590850.565 19143562.555 10 0 59873 66600.00000 0 -12693214.155 -7838672.127 20749557.693 10 0 59873 67500.00000 0 -10110478.945 -8298645.477 21954826.400 10 0 59873 68400.00000 0 -7450645.784 -8978412.050 22736105.279 10 0 59873 69300.00000 0 -4782281.633 -9873363.812 23078268.440 10 0 59873 70200.00000 0 -2172672.680 -10966703.115 22974616.573 10 0 59873 71100.00000 0 314733.706 -12230023.950 22427010.638 10 0 59873 72000.00000 0 2622722.775 -13624392.020 21445847.431 10 0 59873 72900.00000 0 4702445.065 -15101880.875 20049876.587 10 0 59873 73800.00000 0 6515201.166 -16607502.664 18265861.026 10 0 59873 74700.00000 0 8033805.370 -18081455.585 16128085.407 10 0 59873 75600.00000 0 9243471.807 -19461596.674 13677719.736 10 0 59873 76500.00000 0 10142185.708 -20686038.473 10962047.963 10 0 59873 77400.00000 0 10740543.297 -21695762.064 8033574.197 10 0 59873 78300.00000 0 11061065.787 -22437137.251 4949021.855 10 0 59873 79200.00000 0 11137014.917 -22864243.442 1768243.589 10 0 59873 80100.00000 0 11010758.640 -22940892.122 -1446937.617 10 0 59873 81000.00000 0 10731755.107 -22642263.532 -4633933.880 10 0 59873 81900.00000 0 10354239.853 -21956085.801 -7730620.448 10 0 59873 82800.00000 0 9934714.453 -20883303.807 -10676561.183 10 0 59873 83700.00000 0 9529344.090 -19438206.610 -13414206.087 10 0 59873 84600.00000 0 9191376.041 -17648005.420 -15890035.567 10 0 59873 85500.00000 0 8968690.626 -15551877.817 -18055626.996 10 0 59874 0.00000 0 8901590.837 -13199517.306 -19868620.652 10 0 59874 900.00000 0 9020926.676 -10649247.174 -21293565.280 10 0 59874 1800.00000 0 9346635.888 -7965781.237 -22302622.907 10 0 59874 2700.00000 0 9886764.457 -5217721.751 -22876121.414 10 0 59874 3600.00000 0 10637009.649 -2474903.427 -23002940.976 10 0 59874 4500.00000 0 11580805.368 194305.343 -22680727.750 10 0 59874 5400.00000 0 12689946.173 2725630.015 -21915930.828 10 0 59874 6300.00000 0 13925722.944 5061335.782 -20723662.461 10 0 59874 7200.00000 0 15240521.127 7152389.441 -19127385.346 10 0 59874 8100.00000 0 16579812.741 8960247.616 -17158434.394 10 0 59874 9000.00000 0 17884456.590 10458198.003 -14855383.778 10 0 59874 9900.00000 0 19093208.252 11632199.584 -12263273.262 10 0 59874 10800.00000 0 20145332.826 12481189.525 -9432710.457 10 0 59874 11700.00000 0 20983209.576 13016847.128 -6418868.037 10 0 59874 12600.00000 0 21554818.418 13262828.222 -3280396.914 10 0 59874 13500.00000 0 21816003.845 13253505.672 -78277.584 10 0 59874 14400.00000 0 21732421.799 13032272.122 3125367.193 10 0 59874 15300.00000 0 21281088.865 12649479.017 6268474.897 10 0 59874 16200.00000 0 20451470.258 12160100.575 9290237.686 10 0 59874 17100.00000 0 19246062.549 11621222.125 12132266.258 10 0 59874 18000.00000 0 17680448.264 11089458.745 14739701.565 10 0 59874 18900.00000 0 15782821.238 10618412.217 17062254.442 10 0 59874 19800.00000 0 13593003.149 10256272.024 19055154.918 10 0 59874 20700.00000 0 11160992.267 10043659.547 20679994.862 10 0 59874 21600.00000 0 8545104.003 10011804.199 21905449.853 10 0 59874 22500.00000 0 5809779.004 10181126.385 22707868.289 10 0 59874 23400.00000 0 3023147.659 10560285.476 23071717.970 10 0 59874 24300.00000 0 254449.358 11145732.126 22989882.713 10 0 59874 25200.00000 0 -2428589.487 11921783.877 22463803.783 10 0 59874 26100.00000 0 -4962312.804 12861221.927 21503463.261 10 0 59874 27000.00000 0 -7289524.229 13926385.842 20127208.815 10 0 59874 27900.00000 0 -9361611.556 15070722.721 18361421.743 10 0 59874 28800.00000 0 -11140319.345 16240728.557 16240032.736 10 0 59874 29700.00000 0 -12599096.699 17378203.045 13803892.369 10 0 59874 30600.00000 0 -13723963.983 18422725.602 11100006.010 10 0 59874 31500.00000 0 -14513861.491 19314250.285 8180645.671 10 0 59874 32400.00000 0 -14980464.294 19995711.439 5102353.943 10 0 59874 33300.00000 0 -15147469.619 20415530.338 1924857.763 10 0 59874 34200.00000 0 -15049385.226 20529916.194 -1290087.696 10 0 59874 35100.00000 0 -14729868.720 20304862.596 -4479902.818 10 0 59874 36000.00000 0 -14239687.209 19717752.578 -7582411.102 10 0 59874 36900.00000 0 -13634383.457 18758501.538 -10537065.428 10 0 59874 37800.00000 0 -12971747.929 17430186.636 -13286147.558 10 0 59874 38700.00000 0 -12309205.005 15749133.091 -15775915.600 10 0 59874 39600.00000 0 -11701225.846 13744451.185 -17957674.908 10 0 59874 40500.00000 0 -11196879.602 11457041.493 -19788749.558 10 0 59874 41400.00000 0 -10837628.882 8938108.875 -21233333.630 10 0 59874 42300.00000 0 -10655464.870 6247247.250 -22263204.145 10 0 59874 43200.00000 0 -10671462.747 3450175.573 -22858280.724 10 0 59874 44100.00000 0 -10894819.697 616220.563 -23007020.439 10 0 59874 45000.00000 0 -11322416.751 -2184347.456 -22706640.012 10 0 59874 45900.00000 0 -11938922.889 -4883013.194 -21963161.378 10 0 59874 46800.00000 0 -12717436.303 -7415635.952 -20791280.410 10 0 59874 47700.00000 0 -13620634.471 -9724880.181 -19214062.451 10 0 59874 48600.00000 0 -14602382.898 -11762355.730 -17262471.903 10 0 59874 49500.00000 0 -15609732.780 -13490379.298 -14974746.506 10 0 59874 50400.00000 0 -16585221.463 -14883284.975 -12395630.144 10 0 59874 51300.00000 0 -17469376.964 -15928231.466 -9575480.756 10 0 59874 52200.00000 0 -18203319.622 -16625475.081 -6569272.221 10 0 59874 53100.00000 0 -18731350.314 -16988100.308 -3435511.154 10 0 59874 54000.00000 0 -19003415.868 -17041222.742 -235090.789 10 0 59874 54900.00000 0 -18977348.102 -16820701.141 2969894.968 10 0 59874 55800.00000 0 -18620783.030 -16371415.652 6117353.775 10 0 59874 56700.00000 0 -17912680.732 -15745186.883 9146390.170 10 0 59874 57600.00000 0 -16844383.445 -14998424.883 11998471.362 10 0 59874 58500.00000 0 -15420168.914 -14189607.507 14618541.903 10 0 59874 59400.00000 0 -13657277.041 -13376693.965 16956067.218 10 0 59874 60300.00000 0 -11585409.400 -12614581.225 18965987.687 10 0 59874 61200.00000 0 -9245722.718 -11952708.509 20609566.829 10 0 59874 62100.00000 0 -6689357.622 -11432908.472 21855119.376 10 0 59874 63000.00000 0 -3975562.477 -11087593.188 22678607.161 10 0 59874 63900.00000 0 -1169488.274 -10938349.239 23064092.909 10 0 59874 64800.00000 0 1660256.580 -10994999.489 23004044.404 10 0 59874 65700.00000 0 4444193.166 -11255170.282 22499483.673 10 0 59874 66600.00000 0 7114596.401 -11704382.434 21559978.178 10 0 59874 67500.00000 0 9608050.936 -12316663.239 20203473.380 10 0 59874 68400.00000 0 11867835.080 -13055655.584 18455968.386 10 0 59874 69300.00000 0 13846035.461 -13876179.898 16351039.009 10 0 59874 70200.00000 0 15505305.605 -14726185.815 13929215.129 10 0 59874 71100.00000 0 16820195.413 -15549013.927 11237221.903 10 0 59874 72000.00000 0 17777995.507 -16285874.455 8327097.220 10 0 59874 72900.00000 0 18379060.012 -16878439.738 5255200.442 10 0 59874 73800.00000 0 18636592.829 -17271441.717 2081130.049 10 0 59874 74700.00000 0 18575904.650 -17415164.268 -1133429.610 10 0 59874 75600.00000 0 18233170.600 -17267723.717 -4325910.369 10 0 59874 76500.00000 0 17653739.738 -16797038.914 -7434087.253 10 0 59874 77400.00000 0 16890067.242 -15982404.780 -10397305.413 10 0 59874 78300.00000 0 15999356.801 -14815599.644 -13157681.536 10 0 59874 79200.00000 0 15041013.691 -13301476.397 -15661254.442 10 0 59874 80100.00000 0 14074017.652 -11458009.572 -17859060.257 10 0 59874 81000.00000 0 13154328.547 -9315793.881 -19708109.234 10 0 59874 81900.00000 0 12332436.503 -6917013.482 -21172243.308 10 0 59874 82800.00000 0 11651162.185 -4313924.298 -22222856.127 10 0 59874 83700.00000 0 11143801.842 -1566912.692 -22839460.440 10 0 59874 84600.00000 0 10832696.773 1257787.863 -23010091.148 10 0 59874 85500.00000 0 10728288.267 4090625.710 -22731536.011 10 0 59875 0.00000 0 10828697.845 6861398.628 -22009389.901 10 0 59875 900.00000 0 11119849.870 9501949.179 -20857931.756 10 0 59875 1800.00000 0 11576129.855 11948770.710 -19299828.784 10 0 59875 2700.00000 0 12161549.012 14145419.940 -17365673.658 10 0 59875 3600.00000 0 12831363.712 16044631.949 -15093366.082 10 0 59875 4500.00000 0 13534079.279 17610051.705 -12527352.114 10 0 59875 5400.00000 0 14213751.425 18817511.289 -9717737.733 10 0 59875 6300.00000 0 14812486.357 19655801.787 -6719295.428 10 0 59875 7200.00000 0 15273032.669 20126910.408 -3590384.667 10 0 59875 8100.00000 0 15541354.844 20245716.144 -391808.382 10 0 59875 9000.00000 0 15569079.614 20039160.004 2814371.502 10 0 59875 9900.00000 0 15315712.462 19544927.687 5966035.954 10 0 59875 10800.00000 0 14750531.781 18809702.599 9002204.920 10 0 59875 11700.00000 0 13854082.183 17887064.477 11864204.979 10 0 59875 12600.00000 0 12619205.594 16835122.932 14496786.921 10 0 59875 13500.00000 0 11051568.047 15713985.443 16849173.149 10 0 59875 14400.00000 0 9169660.978 14583165.385 18876016.501 10 0 59875 15300.00000 0 7004277.337 13499037.412 20538253.972 10 0 59875 16200.00000 0 4597483.974 12512444.932 21803840.988 10 0 59875 17100.00000 0 2001131.972 11666557.732 22648354.036 10 0 59875 18000.00000 0 -725034.930 10995067.300 23055451.661 10 0 59875 18900.00000 0 -3515597.748 10520793.591 23017186.134 10 0 59875 19800.00000 0 -6301916.482 10254760.231 22534160.363 10 0 59875 20700.00000 0 -9014722.374 10195776.360 21615526.891 10 0 59875 21600.00000 0 -11586743.849 10330542.874 20278828.218 10 0 59875 22500.00000 0 -13955259.888 10634279.629 18549680.075 10 0 59875 23400.00000 0 -16064476.900 11071848.985 16461301.817 10 0 59875 24300.00000 0 -17867631.696 11599330.570 14053900.704 10 0 59875 25200.00000 0 -19328733.576 12165983.292 11373919.486 10 0 59875 26100.00000 0 -20423872.510 12716514.021 8473159.554 10 0 59875 27000.00000 0 -21142037.813 13193558.876 5407794.564 10 0 59875 27900.00000 0 -21485411.505 13540273.255 2237292.013 10 0 59875 28800.00000 0 -21469122.232 13702921.155 -976737.119 10 0 59875 29700.00000 0 -21120468.346 13633353.356 -4171738.659 10 0 59875 30600.00000 0 -20477641.327 13291267.787 -7285441.697 10 0 59875 31500.00000 0 -19588002.354 12646153.935 -10257086.163 10 0 59875 32400.00000 0 -18505984.360 11678835.952 -13028626.137 10 0 59875 33300.00000 0 -17290708.456 10382545.998 -15545883.516 10 0 59875 34200.00000 0 -16003416.382 8763479.296 -17759627.417 10 0 59875 35100.00000 0 -14704828.900 6840804.672 -19626556.270 10 0 59875 36000.00000 0 -13452543.486 4646127.794 -21110161.615 10 0 59875 36900.00000 0 -12298583.084 2222428.192 -22181455.178 10 0 59875 37800.00000 0 -11287201.088 -377486.167 -22819543.952 10 0 59875 38700.00000 0 -10453036.447 -3092942.104 -23012041.454 10 0 59875 39600.00000 0 -9819697.489 -5857699.495 -22755306.906 10 0 59875 40500.00000 0 -9398834.195 -8602487.619 -22054508.006 10 0 59875 41400.00000 0 -9189737.370 -11257672.582 -20923506.722 10 0 59875 42300.00000 0 -9179480.275 -13755943.330 -19384571.362 10 0 59875 43200.00000 0 -9343594.794 -16034903.479 -17467921.867 10 0 59875 44100.00000 0 -9647251.268 -18039460.547 -15211118.602 10 0 59875 45000.00000 0 -10046889.674 -19723913.141 -12658308.242 10 0 59875 45900.00000 0 -10492230.751 -21053650.080 -9859343.041 10 0 59875 46800.00000 0 -10928579.842 -22006392.190 -6868792.183 10 0 59875 47700.00000 0 -11299324.272 -22572927.188 -3744865.959 10 0 59875 48600.00000 0 -11548517.456 -22757309.755 -548274.857 10 0 59875 49500.00000 0 -11623439.917 -22576521.462 2658953.416 10 0 59875 50400.00000 0 -11477029.088 -22059607.815 5814675.490 10 0 59875 51300.00000 0 -11070075.952 -21246331.323 8857829.179 10 0 59875 52200.00000 0 -10373096.930 -20185399.259 11729602.994 10 0 59875 53100.00000 0 -9367803.501 -18932341.868 14374556.570 10 0 59875 54000.00000 0 -8048109.043 -17547130.540 16741671.883 10 0 59875 54900.00000 0 -6420631.646 -16091635.473 18785316.754 10 0 59875 55800.00000 0 -4504672.470 -14627028.151 20466104.016 10 0 59875 56700.00000 0 -2331670.447 -13211235.600 21751631.913 10 0 59875 57600.00000 0 55844.752 -11896550.657 22617093.431 10 0 59875 58500.00000 0 2605759.395 -10727495.810 23045744.446 10 0 59875 59400.00000 0 5258281.658 -9739027.656 23029222.885 10 0 59875 60300.00000 0 7948170.526 -8955155.123 22567713.350 10 0 59875 61200.00000 0 10607198.168 -8388028.044 21669953.918 10 0 59875 62100.00000 0 13166746.780 -8037533.675 20353084.249 10 0 59875 63000.00000 0 15560435.055 -7891418.354 18642336.463 10 0 59875 63900.00000 0 17726667.530 -7925930.217 16570572.861 10 0 59875 64800.00000 0 19611002.574 -8106957.590 14177677.108 10 0 59875 65700.00000 0 21168241.291 -8391617.067 11509808.168 10 0 59875 66600.00000 0 22364150.156 -8730226.411 8618529.134 10 0 59875 67500.00000 0 23176744.636 -9068580.715 5559825.713 10 0 59875 68400.00000 0 23597078.588 -9350436.887 2393031.785 10 0 59875 69300.00000 0 23629504.418 -9520101.824 -820318.015 10 0 59875 70200.00000 0 23291391.055 -9525014.283 -4017686.736 10 0 59875 71100.00000 0 22612309.689 -9318209.783 -7136760.878 10 0 59875 72000.00000 0 21632720.042 -8860562.012 -10116678.531 10 0 59875 72900.00000 0 20402211.619 -8122703.064 -12899234.450 10 0 59875 73800.00000 0 18977373.824 -7086538.061 -15430036.724 10 0 59875 74700.00000 0 17419385.268 -5746286.934 -17659590.340 10 0 59875 75600.00000 0 15791424.967 -4109006.269 -19544284.518 10 0 59875 76500.00000 0 14156016.111 -2194566.579 -21047262.708 10 0 59875 77400.00000 0 12572416.115 -35083.982 -22139156.668 10 0 59875 78300.00000 0 11094164.577 2326171.103 -22798669.229 10 0 59875 79200.00000 0 9766893.819 4836343.038 -23012993.702 10 0 59875 80100.00000 0 8626495.111 7434971.827 -22778061.519 10 0 59875 81000.00000 0 7697717.988 10056302.204 -22098613.595 10 0 59875 81900.00000 0 6993261.089 12631823.411 -20988094.640 10 0 59875 82800.00000 0 6513391.575 15092932.308 -19468373.525 10 0 59875 83700.00000 0 6246107.187 17373607.600 -17569296.422 10 0 59875 84600.00000 0 6167831.660 19412982.858 -15328082.905 10 0 59875 85500.00000 0 6244611.409 21157710.599 -12788578.409 99